Time,TemperatureF,DewpointF,PressureIn,WindDirection,WindDirectionDegrees,WindSpeedMPH,WindSpeedGustMPH,Humidity,HourlyPrecipIn,Conditions,Clouds,dailyrainin,SolarRadiationWatts/m^2,SoftwareType,DateUTC
2013-09-06 00:00:00,57.5,51.4,30.14,South,181,6.9,6.9,80,0.00,CLR,BKN,0.00,0.0,WeatherDisplay:10.37,2013-09-06 05:00:00,
2013-09-06 00:06:00,57.3,51.2,30.14,South,181,8.1,8.1,80,0.00,CLR,BKN,0.00,0.0,WeatherDisplay:10.37,2013-09-06 05:06:00,
2013-09-06 00:11:00,57.0,51.2,30.14,South,182,8.1,8.1,81,0.00,CLR,BKN,0.00,0.0,WeatherDisplay:10.37,2013-09-06 05:11:00,
2013-09-06 00:16:00,56.9,51.1,30.14,South,181,6.9,6.9,81,0.00,CLR,BKN,0.00,0.0,WeatherDisplay:10.37,2013-09-06 05:16:00,
2013-09-06 00:21:00,56.7,50.9,30.14,South,182,6.9,6.9,81,0.00,CLR,BKN,0.00,0.0,WeatherDisplay:10.37,2013-09-06 05:21:00,
2013-09-06 00:26:00,56.6,51.2,30.14,South,181,6.9,6.9,82,0.00,CLR,BKN,0.00,0.0,WeatherDisplay:10.37,2013-09-06 05:26:00,
2013-09-06 00:31:00,56.5,51.1,30.14,South,181,5.0,5.0,82,0.00,CLR,BKN,0.00,0.0,WeatherDisplay:10.37,2013-09-06 05:31:00,
2013-09-06 00:36:00,56.3,50.9,30.14,South,181,5.0,5.0,82,0.00,CLR,BKN,0.00,0.0,WeatherDisplay:10.37,2013-09-06 05:36:00,
2013-09-06 00:42:00,56.2,50.8,30.14,South,182,4.6,4.6,82,0.00,CLR,BKN,0.00,0.0,WeatherDisplay:10.37,2013-09-06 05:42:00,
2013-09-06 00:47:00,56.0,50.6,30.14,South,181,5.8,5.8,82,0.00,CLR,BKN,0.00,0.0,WeatherDisplay:10.37,2013-09-06 05:47:00,
2013-09-06 00:52:00,55.9,50.8,30.14,South,181,5.8,5.8,83,0.00,CLR,BKN,0.00,0.0,WeatherDisplay:10.37,2013-09-06 05:52:00,
2013-09-06 00:57:00,55.7,50.9,30.14,South,181,6.0,6.0,84,0.00,CLR,BKN,0.00,0.0,WeatherDisplay:10.37,2013-09-06 05:57:00,
2013-09-06 01:02:00,55.6,50.5,30.14,South,181,6.0,6.0,83,0.00,CLR,BKN,0.00,0.0,WeatherDisplay:10.37,2013-09-06 06:02:00,
2013-09-06 01:07:00,55.3,50.5,30.14,South,181,6.0,6.0,84,0.00,CLR,BKN,0.00,0.0,WeatherDisplay:10.37,2013-09-06 06:07:00,
2013-09-06 01:12:00,55.1,50.4,30.13,South,181,6.0,6.0,84,0.00,CLR,BKN,0.00,0.0,WeatherDisplay:10.37,2013-09-06 06:12:00,
2013-09-06 01:17:00,55.1,50.4,30.14,South,181,5.8,5.8,84,0.00,CLR,BKN,0.00,0.0,WeatherDisplay:10.37,2013-09-06 06:17:00,
2013-09-06 01:23:00,55.0,50.6,30.14,South,181,4.6,4.6,85,0.00,CLR,BKN,0.00,0.0,WeatherDisplay:10.37,2013-09-06 06:23:00,
2013-09-06 01:28:00,54.8,50.4,30.13,South,181,4.6,4.6,85,0.00,CLR,BKN,0.00,0.0,WeatherDisplay:10.37,2013-09-06 06:28:00,
2013-09-06 01:33:00,54.7,50.3,30.13,South,181,4.6,4.6,85,0.00,CLR,BKN,0.00,0.0,WeatherDisplay:10.37,2013-09-06 06:33:00,
2013-09-06 01:38:00,54.5,50.4,30.13,South,181,4.6,4.6,86,0.00,CLR,BKN,0.00,0.0,WeatherDisplay:10.37,2013-09-06 06:38:00,
2013-09-06 01:43:00,54.4,50.3,30.13,South,181,5.0,5.0,86,0.00,CLR,BKN,0.00,0.0,WeatherDisplay:10.37,2013-09-06 06:43:00,
2013-09-06 01:48:00,54.4,50.3,30.13,South,181,5.0,5.0,86,0.00,CLR,BKN,0.00,0.0,WeatherDisplay:10.37,2013-09-06 06:48:00,
2013-09-06 01:53:00,54.2,50.4,30.13,South,181,5.0,5.0,87,0.00,CLR,BKN,0.00,0.0,WeatherDisplay:10.37,2013-09-06 06:53:00,
2013-09-06 01:59:00,54.1,50.3,30.12,South,181,5.0,5.0,87,0.00,CLR,BKN,0.00,0.0,WeatherDisplay:10.37,2013-09-06 06:59:00,
2013-09-06 02:04:00,53.9,50.1,30.12,South,181,5.0,5.0,87,0.00,CLR,BKN,0.00,0.0,WeatherDisplay:10.37,2013-09-06 07:04:00,
2013-09-06 02:09:00,53.8,50.0,30.12,South,181,4.0,4.0,87,0.00,CLR,BKN,0.00,0.0,WeatherDisplay:10.37,2013-09-06 07:09:00,
2013-09-06 02:14:00,53.8,50.3,30.12,South,181,4.6,4.6,88,0.00,CLR,BKN,0.00,0.0,WeatherDisplay:10.37,2013-09-06 07:14:00,
2013-09-06 02:19:00,53.6,50.1,30.12,South,181,6.0,6.0,88,0.00,CLR,BKN,0.00,0.0,WeatherDisplay:10.37,2013-09-06 07:19:00,
2013-09-06 02:24:00,53.5,50.0,30.12,South,181,6.0,6.0,88,0.00,CLR,BKN,0.00,0.0,WeatherDisplay:10.37,2013-09-06 07:24:00,
2013-09-06 02:29:00,53.5,50.0,30.12,South,182,5.0,5.0,88,0.00,CLR,BKN,0.00,0.0,WeatherDisplay:10.37,2013-09-06 07:29:00,
2013-09-06 02:34:00,53.3,49.8,30.12,South,182,5.0,5.0,88,0.00,CLR,BKN,0.00,0.0,WeatherDisplay:10.37,2013-09-06 07:34:00,
2013-09-06 02:39:00,53.3,49.8,30.11,South,181,3.0,5.0,88,0.00,CLR,BKN,0.00,0.0,WeatherDisplay:10.37,2013-09-06 07:39:00,
2013-09-06 02:44:00,53.2,49.7,30.11,South,182,2.0,4.0,88,0.00,CLR,BKN,0.00,0.0,WeatherDisplay:10.37,2013-09-06 07:44:00,
2013-09-06 02:50:00,53.2,49.7,30.11,South,181,2.0,4.0,88,0.00,CLR,BKN,0.00,0.0,WeatherDisplay:10.37,2013-09-06 07:50:00,
2013-09-06 02:55:00,53.1,49.9,30.11,South,182,5.0,5.0,89,0.00,CLR,BKN,0.00,0.0,WeatherDisplay:10.37,2013-09-06 07:55:00,
2013-09-06 03:00:00,53.1,49.9,30.11,South,181,3.5,3.5,89,0.00,CLR,BKN,0.00,0.0,WeatherDisplay:10.37,2013-09-06 08:00:00,
2013-09-06 03:05:00,53.1,49.9,30.11,South,181,3.5,3.5,89,0.00,CLR,BKN,0.00,0.0,WeatherDisplay:10.37,2013-09-06 08:05:00,
2013-09-06 03:10:00,52.9,49.7,30.11,South,181,3.5,3.5,89,0.00,CLR,BKN,0.00,0.0,WeatherDisplay:10.37,2013-09-06 08:10:00,
2013-09-06 03:15:00,52.9,49.7,30.11,South,181,7.0,7.0,89,0.00,CLR,BKN,0.00,0.0,WeatherDisplay:10.37,2013-09-06 08:15:00,
2013-09-06 03:20:00,52.9,50.0,30.11,SSW,192,5.0,5.0,90,0.00,CLR,BKN,0.00,0.0,WeatherDisplay:10.37,2013-09-06 08:20:00,
2013-09-06 03:25:00,52.8,49.9,30.11,SSW,196,7.0,7.0,90,0.00,CLR,BKN,0.00,0.0,WeatherDisplay:10.37,2013-09-06 08:25:00,
2013-09-06 03:30:00,52.8,50.2,30.11,SSW,195,7.0,7.0,91,0.00,CLR,BKN,0.00,0.0,WeatherDisplay:10.37,2013-09-06 08:30:00,
2013-09-06 03:36:00,52.8,50.2,30.11,SSW,193,5.8,5.8,91,0.00,CLR,BKN,0.00,0.0,WeatherDisplay:10.37,2013-09-06 08:36:00,
2013-09-06 03:41:00,52.8,50.5,30.11,SSW,192,6.9,6.9,92,0.00,CLR,BKN,0.00,0.0,WeatherDisplay:10.37,2013-09-06 08:41:00,
2013-09-06 03:46:00,52.9,50.6,30.11,South,190,9.0,9.0,92,0.00,CLR,BKN,0.00,0.0,WeatherDisplay:10.37,2013-09-06 08:46:00,
2013-09-06 03:51:00,52.9,50.6,30.11,SSW,192,8.1,8.1,92,0.00,CLR,BKN,0.00,0.0,WeatherDisplay:10.37,2013-09-06 08:51:00,
2013-09-06 03:56:00,52.9,50.6,30.11,South,187,9.2,9.2,92,0.00,CLR,BKN,0.00,0.0,WeatherDisplay:10.37,2013-09-06 08:56:00,
2013-09-06 04:01:00,53.1,51.1,30.11,South,190,8.1,8.1,93,0.00,CLR,BKN,0.00,0.0,WeatherDisplay:10.37,2013-09-06 09:01:00,
2013-09-06 04:06:00,53.2,51.2,30.11,SSW,197,8.1,8.1,93,0.00,CLR,BKN,0.00,0.0,WeatherDisplay:10.37,2013-09-06 09:06:00,
2013-09-06 04:12:00,53.2,51.5,30.10,South,188,9.0,9.0,94,0.00,CLR,BKN,0.00,0.0,WeatherDisplay:10.37,2013-09-06 09:12:00,
2013-09-06 04:17:00,53.3,51.6,30.10,SSW,196,8.1,8.1,94,0.00,CLR,BKN,0.00,0.0,WeatherDisplay:10.37,2013-09-06 09:17:00,
2013-09-06 04:22:00,53.5,51.8,30.10,South,190,6.0,6.0,94,0.00,CLR,BKN,0.00,0.0,WeatherDisplay:10.37,2013-09-06 09:22:00,
2013-09-06 04:27:00,53.6,51.9,30.10,SSW,198,8.1,8.1,94,0.00,CLR,BKN,0.00,0.0,WeatherDisplay:10.37,2013-09-06 09:27:00,
2013-09-06 04:32:00,53.8,52.4,30.10,SSW,194,10.4,10.4,95,0.00,CLR,BKN,0.00,0.0,WeatherDisplay:10.37,2013-09-06 09:32:00,
2013-09-06 04:37:00,53.9,52.5,30.10,SSW,192,6.9,6.9,95,0.00,CLR,BKN,0.00,0.0,WeatherDisplay:10.37,2013-09-06 09:37:00,
2013-09-06 04:42:00,54.1,52.7,30.09,SSW,199,8.0,8.0,95,0.00,CLR,BKN,0.00,0.0,WeatherDisplay:10.37,2013-09-06 09:42:00,
2013-09-06 04:47:00,54.2,52.8,30.09,SSW,200,10.4,10.4,95,0.00,CLR,BKN,0.00,0.0,WeatherDisplay:10.37,2013-09-06 09:47:00,
2013-09-06 04:53:00,54.4,53.0,30.09,SSW,194,10.4,10.4,95,0.00,CLR,BKN,0.00,0.0,WeatherDisplay:10.37,2013-09-06 09:53:00,
2013-09-06 04:58:00,54.4,53.0,30.09,South,184,10.4,10.4,95,0.00,CLR,BKN,0.00,0.0,WeatherDisplay:10.37,2013-09-06 09:58:00,
2013-09-06 05:03:00,54.5,53.1,30.09,SSW,194,9.2,9.2,95,0.00,CLR,BKN,0.00,0.0,WeatherDisplay:10.37,2013-09-06 10:03:00,
2013-09-06 05:08:00,54.7,53.3,30.09,South,186,9.2,9.2,95,0.00,CLR,BKN,0.00,0.0,WeatherDisplay:10.37,2013-09-06 10:08:00,
2013-09-06 05:13:00,54.8,53.4,30.09,South,188,10.0,10.0,95,0.00,CLR,BKN,0.00,0.0,WeatherDisplay:10.37,2013-09-06 10:13:00,
2013-09-06 05:18:00,55.0,53.6,30.10,South,188,6.9,6.9,95,0.00,CLR,BKN,0.00,0.0,WeatherDisplay:10.37,2013-09-06 10:18:00,
2013-09-06 05:23:00,55.1,53.7,30.10,South,190,6.9,6.9,95,0.00,CLR,BKN,0.00,0.0,WeatherDisplay:10.37,2013-09-06 10:23:00,
2013-09-06 05:29:00,55.1,53.7,30.10,South,188,8.1,8.1,95,0.00,CLR,BKN,0.00,0.0,WeatherDisplay:10.37,2013-09-06 10:29:00,
2013-09-06 05:34:00,55.1,53.7,30.09,South,181,8.1,8.1,95,0.00,CLR,BKN,0.00,0.0,WeatherDisplay:10.37,2013-09-06 10:34:00,
2013-09-06 05:39:00,55.3,53.9,30.09,South,183,9.2,9.2,95,0.00,CLR,BKN,0.00,0.0,WeatherDisplay:10.37,2013-09-06 10:39:00,
2013-09-06 05:44:00,55.3,53.9,30.09,South,185,9.2,9.2,95,0.00,CLR,BKN,0.00,0.0,WeatherDisplay:10.37,2013-09-06 10:44:00,
2013-09-06 05:49:00,55.4,54.0,30.09,South,185,6.9,6.9,95,0.00,CLR,BKN,0.00,0.0,WeatherDisplay:10.37,2013-09-06 10:49:00,
2013-09-06 05:54:00,55.4,54.0,30.09,SSW,193,7.0,7.0,95,0.00,CLR,BKN,0.00,0.0,WeatherDisplay:10.37,2013-09-06 10:54:00,
2013-09-06 05:59:00,55.6,54.2,30.08,South,190,9.2,9.2,95,0.00,CLR,BKN,0.00,0.0,WeatherDisplay:10.37,2013-09-06 10:59:00,
2013-09-06 06:04:00,55.7,54.6,30.08,South,184,10.4,10.4,96,0.00,CLR,BKN,0.00,0.0,WeatherDisplay:10.37,2013-09-06 11:04:00,
2013-09-06 06:10:00,55.7,54.6,30.08,South,186,3.0,9.0,96,0.00,CLR,BKN,0.00,0.0,WeatherDisplay:10.37,2013-09-06 11:10:00,
2013-09-06 06:14:00,55.9,54.8,30.08,SSW,192,9.2,9.2,96,0.00,CLR,BKN,0.00,0.0,WeatherDisplay:10.37,2013-09-06 11:14:00,
2013-09-06 06:20:00,55.9,54.8,30.08,SSW,197,6.0,9.0,96,0.00,CLR,BKN,0.00,0.0,WeatherDisplay:10.37,2013-09-06 11:20:00,
2013-09-06 06:25:00,56.0,54.9,30.08,South,185,10.4,10.4,96,0.00,CLR,BKN,0.00,0.0,WeatherDisplay:10.37,2013-09-06 11:25:00,
2013-09-06 06:30:00,56.2,55.1,30.08,SSW,203,11.5,11.5,96,0.00,CLR,BKN,0.00,0.0,WeatherDisplay:10.37,2013-09-06 11:30:00,
2013-09-06 06:35:00,56.2,55.1,30.08,SSW,196,9.2,9.2,96,0.00,CLR,BKN,0.00,0.0,WeatherDisplay:10.37,2013-09-06 11:35:00,
2013-09-06 06:40:00,56.3,55.2,30.08,SSW,210,11.5,11.5,96,0.00,CLR,BKN,0.00,0.0,WeatherDisplay:10.37,2013-09-06 11:40:00,
2013-09-06 06:45:00,56.3,55.2,30.08,SSW,202,11.5,11.5,96,0.00,CLR,BKN,0.00,0.0,WeatherDisplay:10.37,2013-09-06 11:45:00,
2013-09-06 06:50:00,56.5,55.4,30.09,SSW,213,7.0,7.0,96,0.00,CLR,BKN,0.00,0.0,WeatherDisplay:10.37,2013-09-06 11:50:00,
2013-09-06 06:55:00,56.6,55.5,30.08,SSW,194,10.0,10.0,96,0.00,CLR,BKN,0.00,0.0,WeatherDisplay:10.37,2013-09-06 11:55:00,
2013-09-06 07:00:00,56.7,55.6,30.08,South,188,11.5,11.5,96,0.00,CLR,BKN,0.00,0.0,WeatherDisplay:10.37,2013-09-06 12:00:00,
2013-09-06 07:06:00,56.9,55.8,30.08,SSW,204,10.4,10.4,96,0.00,CLR,BKN,0.00,0.0,WeatherDisplay:10.37,2013-09-06 12:06:00,
2013-09-06 07:11:00,57.0,55.9,30.08,SSW,198,11.5,11.5,96,0.00,CLR,BKN,0.00,0.0,WeatherDisplay:10.37,2013-09-06 12:11:00,
2013-09-06 07:16:00,57.0,55.9,30.08,SSW,192,12.0,12.0,96,0.00,CLR,BKN,0.00,0.0,WeatherDisplay:10.37,2013-09-06 12:16:00,
2013-09-06 07:21:00,57.2,56.1,30.08,SSW,199,15.0,15.0,96,0.00,CLR,BKN,0.00,0.0,WeatherDisplay:10.37,2013-09-06 12:21:00,
2013-09-06 07:26:00,57.3,56.2,30.08,South,175,13.0,13.0,96,0.00,CLR,BKN,0.00,0.0,WeatherDisplay:10.37,2013-09-06 12:26:00,
2013-09-06 07:31:00,57.5,56.4,30.07,South,181,13.8,13.8,96,0.00,CLR,BKN,0.00,0.0,WeatherDisplay:10.37,2013-09-06 12:31:00,
2013-09-06 07:36:00,57.6,56.8,30.07,South,187,15.0,15.0,97,0.00,CLR,BKN,0.00,0.0,WeatherDisplay:10.37,2013-09-06 12:36:00,
2013-09-06 07:42:00,57.8,57.0,30.07,SSW,204,12.7,12.7,97,0.00,CLR,BKN,0.00,0.0,WeatherDisplay:10.37,2013-09-06 12:42:00,
2013-09-06 07:47:00,58.0,57.2,30.06,SSW,198,13.8,13.8,97,0.00,CLR,BKN,0.00,0.0,WeatherDisplay:10.37,2013-09-06 12:47:00,
2013-09-06 07:52:00,58.1,57.3,30.06,South,187,6.9,6.9,97,0.00,CLR,BKN,0.00,0.0,WeatherDisplay:10.37,2013-09-06 12:52:00,
2013-09-06 07:57:00,58.3,57.5,30.06,SSW,210,9.2,9.2,97,0.00,CLR,BKN,0.00,0.0,WeatherDisplay:10.37,2013-09-06 12:57:00,
2013-09-06 08:02:00,58.4,57.6,30.07,SSW,199,11.5,11.5,97,0.00,OVC,BKN,0.00,0.0,WeatherDisplay:10.37,2013-09-06 13:02:00,
2013-09-06 08:07:00,58.6,57.8,30.06,South,170,9.2,9.2,97,0.00,OVC,BKN,0.00,0.0,WeatherDisplay:10.37,2013-09-06 13:07:00,
2013-09-06 08:12:00,58.7,57.9,30.06,SSW,208,11.5,11.5,97,0.00,OVC,BKN,0.00,0.0,WeatherDisplay:10.37,2013-09-06 13:12:00,
2013-09-06 08:17:00,58.9,58.1,30.06,South,185,8.0,8.0,97,0.00,OVC,BKN,0.00,0.0,WeatherDisplay:10.37,2013-09-06 13:17:00,
2013-09-06 08:23:00,59.0,58.2,30.06,South,185,9.2,9.2,97,0.00,OVC,BKN,0.00,0.0,WeatherDisplay:10.37,2013-09-06 13:23:00,
2013-09-06 08:28:00,59.2,58.3,30.06,South,179,8.1,8.1,97,0.00,OVC,BKN,0.00,0.0,WeatherDisplay:10.37,2013-09-06 13:28:00,
2013-09-06 08:33:00,59.5,58.6,30.05,SSW,205,8.1,8.1,97,0.00,OVC,BKN,0.00,0.0,WeatherDisplay:10.37,2013-09-06 13:33:00,
2013-09-06 08:38:00,59.6,58.7,30.06,South,169,11.5,11.5,97,0.00,OVC,BKN,0.00,0.0,WeatherDisplay:10.37,2013-09-06 13:38:00,
2013-09-06 08:43:00,59.9,59.0,30.05,SSE,167,10.4,10.4,97,0.00,OVC,BKN,0.00,0.0,WeatherDisplay:10.37,2013-09-06 13:43:00,
2013-09-06 08:48:00,60.2,59.3,30.05,South,180,11.5,11.5,97,0.00,OVC,BKN,0.00,0.0,WeatherDisplay:10.37,2013-09-06 13:48:00,
2013-09-06 08:53:00,60.4,59.5,30.05,South,170,11.5,11.5,97,0.00,OVC,BKN,0.00,0.0,WeatherDisplay:10.37,2013-09-06 13:53:00,
2013-09-06 08:59:00,60.7,59.6,30.05,SSW,207,9.2,9.2,96,0.00,OVC,BKN,0.00,0.0,WeatherDisplay:10.37,2013-09-06 13:59:00,
2013-09-06 09:04:00,61.0,59.9,30.05,SW,223,12.0,12.0,96,0.00,OVC,BKN,0.00,0.0,WeatherDisplay:10.37,2013-09-06 14:04:00,
2013-09-06 09:09:00,61.2,60.1,30.04,South,178,8.0,8.0,96,0.00,OVC,BKN,0.00,0.0,WeatherDisplay:10.37,2013-09-06 14:09:00,
2013-09-06 09:14:00,61.5,60.3,30.05,SSW,206,9.2,9.2,96,0.00,OVC,BKN,0.00,0.0,WeatherDisplay:10.37,2013-09-06 14:14:00,
2013-09-06 09:19:00,61.6,60.2,30.04,South,173,13.8,13.8,95,0.00,OVC,BKN,0.00,0.0,WeatherDisplay:10.37,2013-09-06 14:19:00,
2013-09-06 09:24:00,62.0,60.6,30.04,SSW,193,11.5,11.5,95,0.00,OVC,BKN,0.00,0.0,WeatherDisplay:10.37,2013-09-06 14:24:00,
2013-09-06 09:29:00,62.1,60.4,30.04,SSW,213,11.5,11.5,94,0.00,OVC,BKN,0.00,0.0,WeatherDisplay:10.37,2013-09-06 14:29:00,
2013-09-06 09:34:00,62.3,60.6,30.04,SSW,196,9.2,9.2,94,0.00,OVC,BKN,0.00,0.0,WeatherDisplay:10.37,2013-09-06 14:34:00,
2013-09-06 09:39:00,62.6,60.8,30.04,SSW,202,6.0,13.0,94,0.00,OVC,BKN,0.00,0.0,WeatherDisplay:10.37,2013-09-06 14:39:00,
2013-09-06 09:44:00,62.7,60.6,30.05,SW,220,9.2,9.2,93,0.00,OVC,BKN,0.00,0.0,WeatherDisplay:10.37,2013-09-06 14:44:00,
2013-09-06 09:50:00,62.9,60.8,30.04,SSW,200,8.0,13.0,93,0.00,OVC,BKN,0.00,0.0,WeatherDisplay:10.37,2013-09-06 14:50:00,
2013-09-06 09:55:00,63.1,60.7,30.04,South,185,9.2,9.2,92,0.00,OVC,BKN,0.00,0.0,WeatherDisplay:10.37,2013-09-06 14:55:00,
2013-09-06 10:00:00,63.2,60.8,30.04,South,187,5.8,5.8,92,0.00,OVC,BKN,0.00,0.0,WeatherDisplay:10.37,2013-09-06 15:00:00,
2013-09-06 10:05:00,63.5,61.1,30.04,SSW,194,7.0,7.0,92,0.00,OVC,BKN,0.00,0.0,WeatherDisplay:10.37,2013-09-06 15:05:00,
2013-09-06 10:10:00,63.7,61.3,30.04,SW,217,8.1,8.1,92,0.00,OVC,BKN,0.00,0.0,WeatherDisplay:10.37,2013-09-06 15:10:00,
2013-09-06 10:15:00,63.9,61.5,30.04,SSE,160,13.0,13.0,92,0.00,OVC,BKN,0.00,0.0,WeatherDisplay:10.37,2013-09-06 15:15:00,
2013-09-06 10:20:00,64.0,61.3,30.03,SSW,194,11.0,11.0,91,0.00,OVC,BKN,0.00,0.0,WeatherDisplay:10.37,2013-09-06 15:20:00,
2013-09-06 10:25:00,64.2,61.5,30.03,SSW,210,7.0,7.0,91,0.00,OVC,BKN,0.00,0.0,WeatherDisplay:10.37,2013-09-06 15:25:00,
2013-09-06 10:30:00,64.3,61.6,30.02,South,181,9.2,9.2,91,0.00,OVC,BKN,0.00,0.0,WeatherDisplay:10.37,2013-09-06 15:30:00,
2013-09-06 10:36:00,64.7,62.0,30.02,South,178,10.4,10.4,91,0.00,OVC,BKN,0.00,0.0,WeatherDisplay:10.37,2013-09-06 15:36:00,
2013-09-06 10:41:00,64.8,62.1,30.02,South,173,12.0,12.0,91,0.00,OVC,BKN,0.00,0.0,WeatherDisplay:10.37,2013-09-06 15:41:00,
2013-09-06 10:46:00,65.2,62.5,30.02,South,174,11.5,11.5,91,0.00,OVC,BKN,0.00,0.0,WeatherDisplay:10.37,2013-09-06 15:46:00,
2013-09-06 10:51:00,65.5,62.8,30.02,South,188,9.2,9.2,91,0.00,OVC,BKN,0.00,0.0,WeatherDisplay:10.37,2013-09-06 15:51:00,
2013-09-06 10:56:00,65.8,63.1,30.02,South,179,8.1,8.1,91,0.00,OVC,BKN,0.00,0.0,WeatherDisplay:10.37,2013-09-06 15:56:00,
2013-09-06 11:01:00,66.1,63.4,30.01,SSW,203,11.5,11.5,91,0.00,OVC,BKN,0.00,0.0,WeatherDisplay:10.37,2013-09-06 16:01:00,
2013-09-06 11:06:00,66.4,63.4,30.01,South,175,10.4,10.4,90,0.00,OVC,BKN,0.00,0.0,WeatherDisplay:10.37,2013-09-06 16:06:00,
2013-09-06 11:12:00,66.8,63.5,30.01,South,188,11.5,11.5,89,0.00,OVC,BKN,0.00,0.0,WeatherDisplay:10.37,2013-09-06 16:12:00,
2013-09-06 11:17:00,67.1,63.7,30.01,South,181,9.2,9.2,89,0.00,OVC,BKN,0.00,0.0,WeatherDisplay:10.37,2013-09-06 16:17:00,
2013-09-06 11:22:00,67.4,63.7,30.00,SSW,196,12.7,12.7,88,0.00,OVC,BKN,0.00,0.0,WeatherDisplay:10.37,2013-09-06 16:22:00,
2013-09-06 11:27:00,68.1,63.8,30.00,SSE,165,8.1,8.1,86,0.00,OVC,BKN,0.00,0.0,WeatherDisplay:10.37,2013-09-06 16:27:00,
2013-09-06 11:32:00,70.1,64.7,30.00,South,179,6.9,6.9,83,0.00,OVC,BKN,0.00,0.0,WeatherDisplay:10.37,2013-09-06 16:32:00,
2013-09-06 11:37:00,70.9,64.8,30.00,South,179,11.5,11.5,81,0.00,OVC,BKN,0.00,0.0,WeatherDisplay:10.37,2013-09-06 16:37:00,
2013-09-06 11:42:00,71.6,64.7,30.00,SSW,202,13.0,13.0,79,0.00,OVC,BKN,0.00,0.0,WeatherDisplay:10.37,2013-09-06 16:42:00,
2013-09-06 11:47:00,72.3,65.4,29.99,SSW,203,10.0,10.0,79,0.00,OVC,BKN,0.00,0.0,WeatherDisplay:10.37,2013-09-06 16:47:00,
2013-09-06 11:53:00,72.7,65.4,29.99,South,184,11.0,11.0,78,0.00,OVC,BKN,0.00,0.0,WeatherDisplay:10.37,2013-09-06 16:53:00,
2013-09-06 11:58:00,72.8,65.9,29.99,South,183,11.5,11.5,79,0.00,OVC,BKN,0.00,0.0,WeatherDisplay:10.37,2013-09-06 16:58:00,
2013-09-06 12:03:00,72.8,66.3,29.98,SSW,192,9.2,9.2,80,0.00,OVC,BKN,0.00,0.0,WeatherDisplay:10.37,2013-09-06 17:03:00,
2013-09-06 12:08:00,73.7,66.8,29.98,SSW,203,10.0,10.0,79,0.00,OVC,BKN,0.00,0.0,WeatherDisplay:10.37,2013-09-06 17:08:00,
2013-09-06 12:13:00,74.9,67.2,29.98,SSW,200,12.7,12.7,77,0.00,OVC,BKN,0.00,0.0,WeatherDisplay:10.37,2013-09-06 17:13:00,
2013-09-06 12:18:00,75.3,67.2,29.97,South,173,13.8,13.8,76,0.00,OVC,BKN,0.00,0.0,WeatherDisplay:10.37,2013-09-06 17:18:00,
2013-09-06 12:23:00,75.3,66.8,29.97,SW,225,8.1,8.1,75,0.00,OVC,BKN,0.00,0.0,WeatherDisplay:10.37,2013-09-06 17:23:00,
2013-09-06 12:29:00,75.4,66.1,29.97,WSW,237,13.8,13.8,73,0.00,OVC,BKN,0.00,0.0,WeatherDisplay:10.37,2013-09-06 17:29:00,
2013-09-06 12:34:00,76.0,66.7,29.97,WSW,246,17.3,17.3,73,0.00,OVC,BKN,0.00,0.0,WeatherDisplay:10.37,2013-09-06 17:34:00,
2013-09-06 12:39:00,75.8,66.9,29.97,SSW,196,13.8,13.8,74,0.00,OVC,BKN,0.00,0.0,WeatherDisplay:10.37,2013-09-06 17:39:00,
2013-09-06 12:44:00,75.4,66.5,29.96,West,266,15.0,15.0,74,0.00,OVC,BKN,0.00,0.0,WeatherDisplay:10.37,2013-09-06 17:44:00,
2013-09-06 12:49:00,75.3,66.4,29.96,SSW,204,21.0,21.0,74,0.00,OVC,BKN,0.00,0.0,WeatherDisplay:10.37,2013-09-06 17:49:00,
2013-09-06 12:54:00,75.1,66.2,29.96,WSW,245,11.5,11.5,74,0.00,OVC,BKN,0.00,0.0,WeatherDisplay:10.37,2013-09-06 17:54:00,
2013-09-06 12:59:00,74.7,66.6,29.96,SSW,199,10.0,10.0,76,0.00,OVC,BKN,0.00,0.0,WeatherDisplay:10.37,2013-09-06 17:59:00,
2013-09-06 13:04:00,74.6,67.3,29.96,WSW,244,9.2,9.2,78,0.00,OVC,BKN,0.00,0.0,WeatherDisplay:10.37,2013-09-06 18:04:00,
2013-09-06 13:09:00,74.6,67.3,29.96,SW,226,7.0,15.0,78,0.00,OVC,BKN,0.00,0.0,WeatherDisplay:10.37,2013-09-06 18:09:00,
2013-09-06 13:14:00,74.6,67.3,29.95,SSW,206,9.2,9.2,78,0.00,OVC,BKN,0.00,0.0,WeatherDisplay:10.37,2013-09-06 18:14:00,
2013-09-06 13:19:00,74.6,67.3,29.95,SW,219,3.0,13.0,78,0.00,OVC,BKN,0.00,0.0,WeatherDisplay:10.37,2013-09-06 18:19:00,
2013-09-06 13:24:00,75.3,68.0,29.95,SSW,212,8.0,14.0,78,0.00,OVC,BKN,0.00,0.0,WeatherDisplay:10.37,2013-09-06 18:24:00,
2013-09-06 13:29:00,75.8,67.7,29.95,SSW,199,10.0,17.0,76,0.00,OVC,BKN,0.00,0.0,WeatherDisplay:10.37,2013-09-06 18:29:00,
2013-09-06 13:35:00,75.8,66.9,29.95,SW,215,18.4,18.4,74,0.00,OVC,BKN,0.00,0.0,WeatherDisplay:10.37,2013-09-06 18:35:00,
2013-09-06 13:40:00,76.0,67.1,29.94,SSW,202,13.8,13.8,74,0.00,OVC,BKN,0.00,0.0,WeatherDisplay:10.37,2013-09-06 18:40:00,
2013-09-06 13:45:00,76.3,67.8,29.94,South,191,8.1,8.1,75,0.00,OVC,BKN,0.00,0.0,WeatherDisplay:10.37,2013-09-06 18:45:00,
2013-09-06 13:50:00,76.7,67.8,29.93,SW,224,9.2,9.2,74,0.00,OVC,BKN,0.00,0.0,WeatherDisplay:10.37,2013-09-06 18:50:00,
2013-09-06 13:55:00,77.2,67.9,29.93,South,188,15.0,15.0,73,0.00,OVC,BKN,0.00,0.0,WeatherDisplay:10.37,2013-09-06 18:55:00,
2013-09-06 14:00:00,78.1,67.5,29.93,SSW,196,13.8,13.8,70,0.00,OVC,BKN,0.00,0.0,WeatherDisplay:10.37,2013-09-06 19:00:00,
2013-09-06 14:05:00,78.3,68.5,29.93,SSW,211,9.2,9.2,72,0.00,OVC,BKN,0.00,0.0,WeatherDisplay:10.37,2013-09-06 19:05:00,
2013-09-06 14:10:00,78.5,68.7,29.93,WSW,246,11.5,11.5,72,0.00,OVC,BKN,0.00,0.0,WeatherDisplay:10.37,2013-09-06 19:10:00,
2013-09-06 14:16:00,77.9,68.1,29.92,SW,225,8.1,8.1,72,0.00,OVC,BKN,0.00,0.0,WeatherDisplay:10.37,2013-09-06 19:16:00,
2013-09-06 14:21:00,77.7,68.4,29.92,SW,227,12.7,12.7,73,0.00,OVC,BKN,0.00,0.0,WeatherDisplay:10.37,2013-09-06 19:21:00,
2013-09-06 14:26:00,78.1,67.9,29.92,WSW,250,17.3,17.3,71,0.00,OVC,BKN,0.00,0.0,WeatherDisplay:10.37,2013-09-06 19:26:00,
2013-09-06 14:31:00,78.3,66.4,29.92,South,188,16.1,16.1,67,0.00,OVC,BKN,0.00,0.0,WeatherDisplay:10.37,2013-09-06 19:31:00,
2013-09-06 14:36:00,78.5,67.1,29.92,South,189,15.0,15.0,68,0.00,OVC,BKN,0.00,0.0,WeatherDisplay:10.37,2013-09-06 19:36:00,
2013-09-06 14:41:00,78.5,67.5,29.91,SSW,210,11.5,11.5,69,0.00,OVC,BKN,0.00,0.0,WeatherDisplay:10.37,2013-09-06 19:41:00,
2013-09-06 14:46:00,77.9,68.1,29.91,SSW,210,11.5,11.5,72,0.00,OVC,BKN,0.00,0.0,WeatherDisplay:10.37,2013-09-06 19:46:00,
2013-09-06 14:52:00,78.1,68.3,29.91,South,187,12.0,12.6,72,0.00,OVC,BKN,0.00,0.0,WeatherDisplay:10.37,2013-09-06 19:52:00,
2013-09-06 14:57:00,77.7,68.0,29.91,SW,220,11.5,11.5,72,0.00,OVC,BKN,0.00,0.0,WeatherDisplay:10.37,2013-09-06 19:57:00,
2013-09-06 15:02:00,77.6,67.9,29.91,SW,216,11.5,11.5,72,0.00,OVC,BKN,0.00,0.0,WeatherDisplay:10.37,2013-09-06 20:02:00,
2013-09-06 15:07:00,77.9,67.7,29.91,SSW,212,16.1,16.1,71,0.00,OVC,BKN,0.00,0.0,WeatherDisplay:10.37,2013-09-06 20:07:00,
2013-09-06 15:12:00,78.6,68.0,29.91,SSW,198,14.0,14.0,70,0.00,OVC,BKN,0.00,0.0,WeatherDisplay:10.37,2013-09-06 20:12:00,
2013-09-06 15:17:00,78.6,68.0,29.90,SW,224,12.0,12.0,70,0.00,OVC,BKN,0.00,0.0,WeatherDisplay:10.37,2013-09-06 20:17:00,
2013-09-06 15:22:00,78.6,68.0,29.90,SW,227,12.0,12.0,70,0.00,OVC,BKN,0.00,0.0,WeatherDisplay:10.37,2013-09-06 20:22:00,
2013-09-06 15:27:00,78.8,66.9,29.90,WSW,257,18.4,18.4,67,0.00,OVC,BKN,0.00,0.0,WeatherDisplay:10.37,2013-09-06 20:27:00,
2013-09-06 15:33:00,78.8,67.3,29.90,SW,224,14.0,14.0,68,0.00,OVC,BKN,0.00,0.0,WeatherDisplay:10.37,2013-09-06 20:33:00,
2013-09-06 15:38:00,79.2,67.3,29.90,SSW,211,13.0,13.0,67,0.00,OVC,BKN,0.00,0.0,WeatherDisplay:10.37,2013-09-06 20:38:00,
2013-09-06 15:43:00,79.8,68.3,29.90,West,277,12.0,12.0,68,0.00,OVC,BKN,0.00,0.0,WeatherDisplay:10.37,2013-09-06 20:43:00,
2013-09-06 15:48:00,79.9,66.6,29.89,SW,224,13.0,13.0,64,0.00,OVC,BKN,0.00,0.0,WeatherDisplay:10.37,2013-09-06 20:48:00,
2013-09-06 15:53:00,79.8,66.5,29.89,WSW,243,20.0,20.0,64,0.00,OVC,BKN,0.00,0.0,WeatherDisplay:10.37,2013-09-06 20:53:00,
2013-09-06 15:58:00,79.4,67.5,29.89,SW,221,12.7,12.7,67,0.00,OVC,BKN,0.00,0.0,WeatherDisplay:10.37,2013-09-06 20:58:00,
2013-09-06 16:03:00,78.8,67.3,29.89,SW,222,17.3,17.3,68,0.00,OVC,BKN,0.00,0.0,WeatherDisplay:10.37,2013-09-06 21:03:00,
2013-09-06 16:09:00,78.5,67.9,29.88,WSW,253,10.4,10.4,70,0.00,OVC,BKN,0.00,0.0,WeatherDisplay:10.37,2013-09-06 21:09:00,
2013-09-06 16:14:00,78.8,67.8,29.88,SSE,159,5.8,5.8,69,0.00,OVC,BKN,0.00,0.0,WeatherDisplay:10.37,2013-09-06 21:14:00,
2013-09-06 16:19:00,79.0,69.2,29.88,SW,224,8.1,8.1,72,0.00,OVC,BKN,0.00,0.0,WeatherDisplay:10.37,2013-09-06 21:19:00,
2013-09-06 16:24:00,79.8,69.6,29.88,SSE,163,8.1,8.1,71,0.00,OVC,BKN,0.00,0.0,WeatherDisplay:10.37,2013-09-06 21:24:00,
2013-09-06 16:29:00,80.3,68.8,29.88,South,172,12.0,12.0,68,0.00,OVC,BKN,0.00,0.0,WeatherDisplay:10.37,2013-09-06 21:29:00,
2013-09-06 16:34:00,80.3,69.2,29.88,NW,319,8.1,8.1,69,0.00,OVC,BKN,0.00,0.0,WeatherDisplay:10.37,2013-09-06 21:34:00,
2013-09-06 16:39:00,80.1,69.4,29.88,SSW,212,13.8,13.8,70,0.00,OVC,BKN,0.00,0.0,WeatherDisplay:10.37,2013-09-06 21:39:00,
2013-09-06 16:44:00,80.5,69.4,29.88,SSW,213,6.0,12.0,69,0.00,OVC,BKN,0.00,0.0,WeatherDisplay:10.37,2013-09-06 21:44:00,
2013-09-06 16:49:00,79.9,68.8,29.88,SW,220,5.0,10.0,69,0.00,OVC,BKN,0.00,0.0,WeatherDisplay:10.37,2013-09-06 21:49:00,
2013-09-06 16:54:00,79.8,67.9,29.88,SSW,207,11.5,11.5,67,0.00,OVC,BKN,0.00,0.0,WeatherDisplay:10.37,2013-09-06 21:54:00,
2013-09-06 17:00:00,79.6,68.1,29.88,SW,225,8.1,8.1,68,0.00,OVC,BKN,0.00,0.0,WeatherDisplay:10.37,2013-09-06 22:00:00,
2013-09-06 17:05:00,79.2,69.4,29.88,SW,229,4.6,4.6,72,0.00,OVC,BKN,0.00,0.0,WeatherDisplay:10.37,2013-09-06 22:05:00,
2013-09-06 17:10:00,79.2,68.1,29.88,South,185,10.4,10.4,69,0.00,OVC,BKN,0.00,0.0,WeatherDisplay:10.37,2013-09-06 22:10:00,
2013-09-06 17:15:00,78.8,69.0,29.88,SSW,207,11.0,11.0,72,0.00,OVC,BKN,0.00,0.0,WeatherDisplay:10.37,2013-09-06 22:15:00,
2013-09-06 17:20:00,78.5,68.7,29.88,SSW,208,11.5,11.5,72,0.00,OVC,BKN,0.00,0.0,WeatherDisplay:10.37,2013-09-06 22:20:00,
2013-09-06 17:25:00,78.6,68.0,29.87,South,183,10.4,10.4,70,0.00,OVC,BKN,0.00,0.0,WeatherDisplay:10.37,2013-09-06 22:25:00,
2013-09-06 17:30:00,78.8,67.8,29.87,SSW,192,9.2,9.2,69,0.00,OVC,BKN,0.00,0.0,WeatherDisplay:10.37,2013-09-06 22:30:00,
2013-09-06 17:36:00,78.6,68.0,29.87,SSW,202,11.5,11.5,70,0.00,OVC,BKN,0.00,0.0,WeatherDisplay:10.37,2013-09-06 22:36:00,
2013-09-06 17:41:00,78.6,68.8,29.87,SSW,212,9.2,9.2,72,0.00,OVC,BKN,0.00,0.0,WeatherDisplay:10.37,2013-09-06 22:41:00,
2013-09-06 17:46:00,78.6,68.0,29.87,SW,219,6.9,6.9,70,0.00,OVC,BKN,0.00,0.0,WeatherDisplay:10.37,2013-09-06 22:46:00,
2013-09-06 17:51:00,78.5,68.7,29.87,SSW,210,11.5,11.5,72,0.00,OVC,BKN,0.00,0.0,WeatherDisplay:10.37,2013-09-06 22:51:00,
2013-09-06 17:56:00,78.5,68.7,29.87,SW,215,9.0,9.0,72,0.00,OVC,BKN,0.00,0.0,WeatherDisplay:10.37,2013-09-06 22:56:00,
2013-09-06 18:01:00,78.1,68.3,29.87,South,190,7.0,7.0,72,0.00,CLR,BKN,0.00,0.0,WeatherDisplay:10.37,2013-09-06 23:01:00,
2013-09-06 18:06:00,78.3,68.9,29.86,SW,222,10.4,10.4,73,0.00,CLR,BKN,0.00,0.0,WeatherDisplay:10.37,2013-09-06 23:06:00,
2013-09-06 18:11:00,78.5,68.7,29.86,SW,219,7.0,7.0,72,0.00,CLR,BKN,0.00,0.0,WeatherDisplay:10.37,2013-09-06 23:11:00,
2013-09-06 18:17:00,78.1,68.3,29.86,SSW,203,9.2,9.2,72,0.00,CLR,BKN,0.00,0.0,WeatherDisplay:10.37,2013-09-06 23:17:00,
2013-09-06 18:22:00,77.9,68.5,29.86,SSW,203,7.0,7.0,73,0.00,CLR,BKN,0.00,0.0,WeatherDisplay:10.37,2013-09-06 23:22:00,
2013-09-06 18:27:00,77.7,68.4,29.86,SSW,194,10.4,10.4,73,0.00,CLR,BKN,0.00,0.0,WeatherDisplay:10.37,2013-09-06 23:27:00,
2013-09-06 18:32:00,77.6,68.7,29.86,SW,235,11.5,11.5,74,0.00,CLR,BKN,0.00,0.0,WeatherDisplay:10.37,2013-09-06 23:32:00,
2013-09-06 18:37:00,77.4,68.1,29.86,SW,229,9.2,9.2,73,0.00,CLR,BKN,0.00,0.0,WeatherDisplay:10.37,2013-09-06 23:37:00,
2013-09-06 18:42:00,77.4,68.1,29.85,SSW,192,10.4,10.4,73,0.00,CLR,BKN,0.00,0.0,WeatherDisplay:10.37,2013-09-06 23:42:00,
2013-09-06 18:47:00,76.8,68.3,29.85,SSW,196,8.1,8.1,75,0.00,CLR,BKN,0.00,0.0,WeatherDisplay:10.37,2013-09-06 23:47:00,
2013-09-06 18:53:00,76.5,68.4,29.86,SSW,199,8.1,8.1,76,0.00,CLR,BKN,0.00,0.0,WeatherDisplay:10.37,2013-09-06 23:53:00,
2013-09-06 18:58:00,76.3,68.2,29.85,South,185,9.2,9.2,76,0.00,CLR,BKN,0.00,0.0,WeatherDisplay:10.37,2013-09-06 23:58:00,
2013-09-06 19:03:00,76.0,68.3,29.85,SW,229,6.9,6.9,77,0.00,CLR,BKN,0.00,0.0,WeatherDisplay:10.37,2013-09-07 00:03:00,
2013-09-06 19:08:00,75.6,68.3,29.85,SW,219,4.6,4.6,78,0.00,CLR,BKN,0.00,0.0,WeatherDisplay:10.37,2013-09-07 00:08:00,
2013-09-06 19:13:00,75.3,68.0,29.85,SSW,208,6.9,6.9,78,0.00,CLR,BKN,0.00,0.0,WeatherDisplay:10.37,2013-09-07 00:13:00,
2013-09-06 19:18:00,75.1,68.1,29.85,SSW,206,5.0,5.0,79,0.00,CLR,BKN,0.00,0.0,WeatherDisplay:10.37,2013-09-07 00:18:00,
2013-09-06 19:23:00,74.9,67.9,29.85,SSW,203,7.0,7.0,79,0.00,CLR,BKN,0.00,0.0,WeatherDisplay:10.37,2013-09-07 00:23:00,
2013-09-06 19:28:00,74.7,67.8,29.85,SW,217,7.0,7.0,79,0.00,CLR,BKN,0.00,0.0,WeatherDisplay:10.37,2013-09-07 00:28:00,
2013-09-06 19:34:00,74.6,67.7,29.85,SSW,208,5.0,5.0,79,0.00,CLR,BKN,0.00,0.0,WeatherDisplay:10.37,2013-09-07 00:34:00,
2013-09-06 19:39:00,74.4,67.5,29.85,SSW,208,3.5,3.5,79,0.00,CLR,BKN,0.00,0.0,WeatherDisplay:10.37,2013-09-07 00:39:00,
2013-09-06 19:44:00,74.0,67.4,29.85,SSW,204,5.0,5.0,80,0.00,CLR,BKN,0.00,0.0,WeatherDisplay:10.37,2013-09-07 00:44:00,
2013-09-06 19:49:00,73.5,67.3,29.85,SSW,201,6.9,6.9,81,0.00,CLR,BKN,0.00,0.0,WeatherDisplay:10.37,2013-09-07 00:49:00,
2013-09-06 19:54:00,73.3,67.1,29.85,SSW,199,5.8,5.8,81,0.00,CLR,BKN,0.00,0.0,WeatherDisplay:10.37,2013-09-07 00:54:00,
2013-09-06 19:59:00,73.3,67.1,29.85,SSW,199,4.6,4.6,81,0.00,CLR,BKN,0.00,0.0,WeatherDisplay:10.37,2013-09-07 00:59:00,
2013-09-06 20:04:00,73.2,67.0,29.86,SSW,200,5.8,5.8,81,0.00,CLR,BKN,0.00,0.0,WeatherDisplay:10.37,2013-09-07 01:04:00,
2013-09-06 20:09:00,72.8,67.3,29.86,SSW,201,5.0,7.0,83,0.00,CLR,BKN,0.00,0.0,WeatherDisplay:10.37,2013-09-07 01:09:00,
2013-09-06 20:14:00,72.5,67.0,29.86,SSW,209,6.9,6.9,83,0.00,CLR,BKN,0.00,0.0,WeatherDisplay:10.37,2013-09-07 01:14:00,
2013-09-06 20:19:00,72.3,66.8,29.86,SSW,209,5.0,8.0,83,0.00,CLR,BKN,0.00,0.0,WeatherDisplay:10.37,2013-09-07 01:19:00,
2013-09-06 20:24:00,72.1,66.6,29.86,SSW,201,8.0,8.0,83,0.00,CLR,BKN,0.00,0.0,WeatherDisplay:10.37,2013-09-07 01:24:00,
2013-09-06 20:29:00,72.1,66.6,29.86,SW,214,6.0,8.0,83,0.00,CLR,BKN,0.00,0.0,WeatherDisplay:10.37,2013-09-07 01:29:00,
2013-09-06 20:35:00,72.1,66.3,29.86,SSW,209,7.0,7.0,82,0.00,CLR,BKN,0.00,0.0,WeatherDisplay:10.37,2013-09-07 01:35:00,
2013-09-06 20:40:00,72.1,66.3,29.86,SSW,200,8.0,8.0,82,0.00,CLR,BKN,0.00,0.0,WeatherDisplay:10.37,2013-09-07 01:40:00,
2013-09-06 20:45:00,72.1,66.3,29.86,SSW,210,5.8,5.8,82,0.00,CLR,BKN,0.00,0.0,WeatherDisplay:10.37,2013-09-07 01:45:00,
2013-09-06 20:50:00,72.0,66.2,29.87,SW,216,7.0,7.0,82,0.00,CLR,BKN,0.00,0.0,WeatherDisplay:10.37,2013-09-07 01:50:00,
2013-09-06 20:55:00,72.0,66.2,29.87,SW,217,6.9,6.9,82,0.00,CLR,BKN,0.00,0.0,WeatherDisplay:10.37,2013-09-07 01:55:00,
2013-09-06 21:00:00,71.8,66.0,29.86,SW,215,6.9,6.9,82,0.00,CLR,BKN,0.00,0.0,WeatherDisplay:10.37,2013-09-07 02:00:00,
2013-09-06 21:05:00,71.6,65.8,29.86,SSW,211,7.0,7.0,82,0.00,CLR,BKN,0.00,0.0,WeatherDisplay:10.37,2013-09-07 02:05:00,
2013-09-06 21:10:00,71.6,65.8,29.87,SSW,212,5.8,5.8,82,0.00,CLR,BKN,0.00,0.0,WeatherDisplay:10.37,2013-09-07 02:10:00,
2013-09-06 21:16:00,71.5,65.7,29.86,SSW,212,4.6,4.6,82,0.00,CLR,BKN,0.00,0.0,WeatherDisplay:10.37,2013-09-07 02:16:00,
2013-09-06 21:21:00,71.3,65.5,29.87,SW,214,6.9,6.9,82,0.00,CLR,BKN,0.00,0.0,WeatherDisplay:10.37,2013-09-07 02:21:00,
2013-09-06 21:26:00,71.1,65.3,29.87,SW,217,8.1,8.1,82,0.00,CLR,BKN,0.00,0.0,WeatherDisplay:10.37,2013-09-07 02:26:00,
2013-09-06 21:31:00,70.9,65.1,29.86,SW,217,5.0,5.0,82,0.00,CLR,BKN,0.00,0.0,WeatherDisplay:10.37,2013-09-07 02:31:00,
2013-09-06 21:36:00,70.8,65.0,29.86,SW,215,7.0,7.0,82,0.00,CLR,BKN,0.00,0.0,WeatherDisplay:10.37,2013-09-07 02:36:00,
2013-09-06 21:41:00,70.8,65.0,29.86,SW,217,5.8,5.8,82,0.00,CLR,BKN,0.00,0.0,WeatherDisplay:10.37,2013-09-07 02:41:00,
2013-09-06 21:46:00,70.6,65.2,29.86,SW,215,5.8,5.8,83,0.00,CLR,BKN,0.00,0.0,WeatherDisplay:10.37,2013-09-07 02:46:00,
2013-09-06 21:52:00,70.4,65.3,29.86,SW,216,5.8,5.8,84,0.00,CLR,BKN,0.00,0.0,WeatherDisplay:10.37,2013-09-07 02:52:00,
2013-09-06 21:57:00,70.3,65.2,29.86,SW,216,5.0,5.0,84,0.00,CLR,BKN,0.00,0.0,WeatherDisplay:10.37,2013-09-07 02:57:00,
2013-09-06 22:02:00,70.1,65.0,29.86,SW,215,6.0,6.0,84,0.00,CLR,BKN,0.00,0.0,WeatherDisplay:10.37,2013-09-07 03:02:00,
2013-09-06 22:07:00,69.9,64.8,29.86,SSW,213,5.0,5.0,84,0.00,CLR,BKN,0.00,0.0,WeatherDisplay:10.37,2013-09-07 03:07:00,
2013-09-06 22:12:00,69.8,64.7,29.86,SW,215,6.9,6.9,84,0.00,CLR,BKN,0.00,0.0,WeatherDisplay:10.37,2013-09-07 03:12:00,
2013-09-06 22:17:00,69.6,64.5,29.87,SW,214,5.0,5.0,84,0.00,CLR,BKN,0.00,0.0,WeatherDisplay:10.37,2013-09-07 03:17:00,
2013-09-06 22:22:00,69.4,64.4,29.86,SSW,210,6.9,6.9,84,0.00,CLR,BKN,0.00,0.0,WeatherDisplay:10.37,2013-09-07 03:22:00,
2013-09-06 22:27:00,69.4,64.7,29.86,SSW,206,5.0,5.0,85,0.00,CLR,BKN,0.00,0.0,WeatherDisplay:10.37,2013-09-07 03:27:00,
2013-09-06 22:33:00,69.3,64.6,29.86,SSW,205,8.1,8.1,85,0.00,CLR,BKN,0.00,0.0,WeatherDisplay:10.37,2013-09-07 03:33:00,
2013-09-06 22:38:00,69.3,64.9,29.86,SSW,205,4.6,4.6,86,0.00,CLR,BKN,0.00,0.0,WeatherDisplay:10.37,2013-09-07 03:38:00,
2013-09-06 22:43:00,69.1,64.7,29.86,SSW,205,5.8,5.8,86,0.00,CLR,BKN,0.00,0.0,WeatherDisplay:10.37,2013-09-07 03:43:00,
2013-09-06 22:48:00,69.1,64.7,29.86,SSW,203,5.8,5.8,86,0.00,CLR,BKN,0.00,0.0,WeatherDisplay:10.37,2013-09-07 03:48:00,
2013-09-06 22:53:00,68.9,64.2,29.86,SSW,206,6.0,6.0,85,0.00,CLR,BKN,0.00,0.0,WeatherDisplay:10.37,2013-09-07 03:53:00,
2013-09-06 22:58:00,68.9,64.2,29.86,SSW,204,5.8,5.8,85,0.00,CLR,BKN,0.00,0.0,WeatherDisplay:10.37,2013-09-07 03:58:00,
2013-09-06 23:01:00,68.9,64.2,29.86,SSW,206,7.0,7.0,85,0.00,CLR,BKN,0.00,0.0,WeatherDisplay:10.37,2013-09-07 04:01:00,
2013-09-06 23:02:00,68.9,64.2,29.86,SSW,206,6.9,6.9,85,0.00,CLR,BKN,0.00,0.0,WeatherDisplay:10.37,2013-09-07 04:02:00,
2013-09-06 23:04:00,68.9,64.5,29.86,SSW,199,6.9,6.9,86,0.00,CLR,BKN,0.00,0.0,WeatherDisplay:10.37,2013-09-07 04:04:00,
2013-09-06 23:05:00,68.9,64.5,29.86,SSW,203,6.0,6.0,86,0.00,CLR,BKN,0.00,0.0,WeatherDisplay:10.37,2013-09-07 04:05:00,
2013-09-06 23:10:00,68.9,64.5,29.85,SSW,204,7.0,7.0,86,0.00,CLR,BKN,0.00,0.0,WeatherDisplay:10.37,2013-09-07 04:10:00,
2013-09-06 23:15:00,68.9,64.5,29.85,SSW,204,5.8,5.8,86,0.00,CLR,BKN,0.00,0.0,WeatherDisplay:10.37,2013-09-07 04:15:00,
2013-09-06 23:20:00,68.9,64.5,29.86,SSW,205,6.0,6.0,86,0.00,CLR,BKN,0.00,0.0,WeatherDisplay:10.37,2013-09-07 04:20:00,
2013-09-06 23:25:00,68.9,64.5,29.85,SSW,210,7.0,7.0,86,0.00,CLR,BKN,0.00,0.0,WeatherDisplay:10.37,2013-09-07 04:25:00,
2013-09-06 23:30:00,68.9,64.5,29.85,SSW,211,8.1,8.1,86,0.00,CLR,BKN,0.00,0.0,WeatherDisplay:10.37,2013-09-07 04:30:00,
2013-09-06 23:36:00,68.9,64.5,29.85,SSW,210,6.9,6.9,86,0.00,CLR,BKN,0.00,0.0,WeatherDisplay:10.37,2013-09-07 04:36:00,
2013-09-06 23:41:00,68.8,64.4,29.85,SSW,212,8.1,8.1,86,0.00,CLR,BKN,0.00,0.0,WeatherDisplay:10.37,2013-09-07 04:41:00,
2013-09-06 23:46:00,68.8,64.4,29.85,SSW,212,6.9,6.9,86,0.00,CLR,BKN,0.00,0.0,WeatherDisplay:10.37,2013-09-07 04:46:00,
2013-09-06 23:51:00,68.8,64.1,29.85,SSW,208,8.1,8.1,85,0.00,CLR,BKN,0.00,0.0,WeatherDisplay:10.37,2013-09-07 04:51:00,
2013-09-06 23:56:00,68.6,63.9,29.85,SSW,210,5.0,5.0,85,0.00,CLR,BKN,0.00,0.0,WeatherDisplay:10.37,2013-09-07 04:56:00,